AAL2717 KSAN-KPHX

Flight info

Callsign AAL2717
Flight time 0h 58m
Altitude 31000
Route ZZOOO4 HOGGZ HYDRR1
Aircraft A320/M-SDE3FGHIRWY/LB1

Departure

Time 2026-05-06 02:28
Airport San Diego International Airport (KSAN)

Arrival

Time 2026-05-06 03:26
Airport Phoenix Sky Harbor International Airport (KPHX)
Time Latitude Longitude Altitude Speed Heading
2026-05-06 01:55 32.73376 -117.20211 23 ft 0 kts 140°
2026-05-06 02:16 32.73379 -117.20213 23 ft 3 kts 139°
2026-05-06 02:17 32.73394 -117.20230 25 ft 3 kts 128°
2026-05-06 02:17 32.73404 -117.20251 23 ft 3 kts 102°
2026-05-06 02:17 32.73405 -117.20270 24 ft 3 kts 46°
2026-05-06 02:17 32.73396 -117.20277 24 ft 1 kts 15°
2026-05-06 02:18 32.73394 -117.20278 26 ft 0 kts 15°
2026-05-06 02:20 32.73395 -117.20277 27 ft 1 kts 15°
2026-05-06 02:20 32.73424 -117.20268 24 ft 8 kts 15°
2026-05-06 02:21 32.73502 -117.20243 24 ft 11 kts 16°
2026-05-06 02:21 32.73541 -117.20170 23 ft 13 kts 96°
2026-05-06 02:21 32.73512 -117.20034 24 ft 21 kts 106°
2026-05-06 02:21 32.73467 -117.19847 24 ft 25 kts 106°
2026-05-06 02:22 32.73417 -117.19643 23 ft 27 kts 106°
2026-05-06 02:22 32.73363 -117.19419 23 ft 29 kts 107°
2026-05-06 02:22 32.73303 -117.19176 25 ft 32 kts 105°
2026-05-06 02:22 32.73241 -117.18916 24 ft 34 kts 105°
2026-05-06 02:23 32.73183 -117.18674 22 ft 17 kts 105°
2026-05-06 02:23 32.73147 -117.18529 21 ft 20 kts 106°
2026-05-06 02:23 32.73108 -117.18365 22 ft 22 kts 106°
2026-05-06 02:23 32.73064 -117.18183 21 ft 24 kts 106°
2026-05-06 02:24 32.73020 -117.17998 21 ft 19 kts 104°
2026-05-06 02:24 32.72999 -117.17905 23 ft 8 kts 106°
2026-05-06 02:24 32.72979 -117.17830 21 ft 11 kts 109°
2026-05-06 02:24 32.72953 -117.17739 21 ft 13 kts 105°
2026-05-06 02:25 32.72957 -117.17676 21 ft 0 kts 76°
2026-05-06 02:26 32.72961 -117.17659 22 ft 7 kts 73°
2026-05-06 02:27 32.73022 -117.17625 23 ft 13 kts 318°
2026-05-06 02:27 32.73047 -117.17694 21 ft 0 kts 286°
2026-05-06 02:27 32.73048 -117.17697 21 ft 2 kts 286°
2026-05-06 02:27 32.73105 -117.17931 24 ft 66 kts 286°
2026-05-06 02:28 32.73290 -117.18696 21 ft 124 kts 286°
2026-05-06 02:28 32.73562 -117.19823 247 ft 148 kts 286°
2026-05-06 02:28 32.73839 -117.20996 911 ft 147 kts 286°
2026-05-06 02:28 32.74121 -117.22156 1468 ft 145 kts 287°
2026-05-06 02:29 32.74409 -117.23339 1899 ft 157 kts 286°
2026-05-06 02:29 32.74735 -117.24673 2145 ft 179 kts 286°
2026-05-06 02:29 32.75101 -117.26191 2419 ft 204 kts 286°
2026-05-06 02:29 32.75514 -117.27897 2851 ft 223 kts 286°
2026-05-06 02:30 32.75941 -117.29663 3685 ft 227 kts 286°
2026-05-06 02:30 32.76388 -117.31517 4532 ft 234 kts 285°
2026-05-06 02:30 32.76474 -117.33458 4905 ft 240 kts 255°
2026-05-06 02:30 32.75564 -117.35091 4975 ft 244 kts 217°
2026-05-06 02:31 32.73949 -117.35710 5087 ft 254 kts 176°
2026-05-06 02:31 32.72331 -117.34943 5890 ft 260 kts 141°
2026-05-06 02:31 32.70990 -117.33512 6815 ft 261 kts 135°
2026-05-06 02:31 32.69687 -117.31983 7670 ft 264 kts 135°
2026-05-06 02:32 32.68376 -117.30431 8542 ft 267 kts 135°
2026-05-06 02:32 32.67023 -117.28865 9308 ft 275 kts 135°
2026-05-06 02:32 32.65628 -117.27294 10106 ft 279 kts 136°
2026-05-06 02:32 32.64273 -117.25613 10825 ft 283 kts 125°
2026-05-06 02:33 32.63304 -117.23576 11526 ft 288 kts 110°
2026-05-06 02:33 32.62909 -117.22036 11711 ft 301 kts 99°
2026-05-06 02:33 32.62332 -117.15756 12226 ft 353 kts 94°
2026-05-06 02:34 32.62094 -117.12817 12736 ft 362 kts 91°
2026-05-06 02:34 32.62264 -117.09824 13408 ft 364 kts 77°
2026-05-06 02:34 32.63003 -117.06955 14095 ft 366 kts 67°
2026-05-06 02:34 32.63933 -117.04131 14720 ft 369 kts 67°
2026-05-06 02:35 32.64869 -117.01286 15329 ft 372 kts 67°
2026-05-06 02:35 32.65801 -116.98440 15922 ft 376 kts 68°
2026-05-06 02:35 32.66511 -116.95432 16517 ft 382 kts 78°
2026-05-06 02:35 32.66735 -116.92277 17101 ft 387 kts 88°
2026-05-06 02:36 32.66795 -116.89073 17747 ft 390 kts 87°
2026-05-06 02:36 32.66867 -116.85842 18371 ft 394 kts 86°
2026-05-06 02:36 32.66947 -116.82573 18886 ft 399 kts 87°
2026-05-06 02:36 32.67026 -116.79269 19440 ft 403 kts 87°
2026-05-06 02:37 32.67105 -116.75929 19980 ft 407 kts 87°
2026-05-06 02:37 32.67151 -116.72548 20554 ft 411 kts 89°
2026-05-06 02:37 32.67127 -116.69132 21076 ft 416 kts 90°
2026-05-06 02:37 32.67057 -116.65684 21606 ft 420 kts 91°
2026-05-06 02:38 32.66966 -116.62200 22108 ft 425 kts 91°
2026-05-06 02:38 32.66872 -116.58674 22594 ft 429 kts 91°
2026-05-06 02:38 32.66788 -116.55118 23078 ft 433 kts 91°
2026-05-06 02:38 32.66716 -116.51534 23578 ft 436 kts 90°
2026-05-06 02:39 32.66652 -116.47919 23971 ft 440 kts 90°
2026-05-06 02:39 32.66593 -116.44267 24333 ft 444 kts 90°
2026-05-06 02:39 32.66740 -116.40588 24680 ft 448 kts 83°
2026-05-06 02:39 32.67090 -116.36899 25013 ft 452 kts 83°
2026-05-06 02:40 32.67438 -116.33168 25343 ft 457 kts 83°
2026-05-06 02:40 32.67786 -116.29397 25672 ft 461 kts 83°
2026-05-06 02:40 32.68124 -116.25651 25987 ft 465 kts 83°
2026-05-06 02:40 32.68465 -116.21825 26341 ft 468 kts 83°
2026-05-06 02:41 32.68809 -116.17965 26674 ft 472 kts 84°
2026-05-06 02:41 32.69155 -116.14076 26999 ft 476 kts 84°
2026-05-06 02:41 32.69501 -116.10157 27283 ft 480 kts 84°
2026-05-06 02:41 32.69853 -116.06187 27617 ft 484 kts 84°
2026-05-06 02:42 32.70206 -116.02200 27920 ft 488 kts 84°
2026-05-06 02:42 32.70567 -115.98175 28192 ft 492 kts 84°
2026-05-06 02:42 32.70940 -115.94125 28492 ft 495 kts 84°
2026-05-06 02:42 32.71323 -115.90048 28814 ft 498 kts 84°
2026-05-06 02:43 32.71710 -115.85946 29097 ft 502 kts 84°
2026-05-06 02:43 32.72100 -115.81809 29372 ft 506 kts 84°
2026-05-06 02:43 32.72487 -115.77643 29677 ft 509 kts 84°
2026-05-06 02:43 32.72872 -115.73461 30078 ft 510 kts 84°
2026-05-06 02:44 32.73254 -115.69269 30384 ft 511 kts 84°
2026-05-06 02:44 32.73633 -115.65050 30555 ft 517 kts 85°
2026-05-06 02:44 32.74008 -115.60829 30721 ft 521 kts 85°
2026-05-06 02:44 32.74388 -115.56540 30898 ft 523 kts 85°
2026-05-06 02:45 32.74768 -115.52265 30937 ft 519 kts 85°
2026-05-06 02:45 32.75271 -115.43741 30935 ft 516 kts 90°
2026-05-06 02:46 32.75382 -115.35222 30926 ft 515 kts 92°
2026-05-06 02:46 32.75446 -115.26844 30936 ft 497 kts 91°
2026-05-06 02:47 32.75610 -115.18686 30884 ft 491 kts 91°
2026-05-06 02:47 32.75713 -115.14638 30485 ft 491 kts 90°
2026-05-06 02:47 32.75819 -115.10527 30092 ft 507 kts 90°
2026-05-06 02:47 32.75919 -115.06345 29636 ft 517 kts 90°
2026-05-06 02:48 32.76014 -115.02084 29163 ft 515 kts 90°
2026-05-06 02:48 32.76104 -114.97839 28454 ft 513 kts 90°
2026-05-06 02:48 32.76189 -114.93580 27350 ft 517 kts 90°
2026-05-06 02:48 32.76270 -114.89331 26633 ft 511 kts 90°
2026-05-06 02:49 32.76349 -114.85147 26000 ft 503 kts 90°
2026-05-06 02:49 32.76427 -114.81027 25405 ft 495 kts 89°
2026-05-06 02:49 32.76505 -114.76988 25031 ft 482 kts 89°
2026-05-06 02:49 32.76580 -114.73061 24886 ft 466 kts 89°
2026-05-06 02:50 32.76651 -114.69248 24929 ft 461 kts 89°
2026-05-06 02:50 32.76720 -114.65445 24927 ft 461 kts 89°
2026-05-06 02:50 32.76787 -114.61637 24926 ft 460 kts 89°
2026-05-06 02:50 32.76851 -114.57833 24926 ft 460 kts 89°
2026-05-06 02:51 32.76910 -114.54030 24926 ft 460 kts 90°
2026-05-06 02:51 32.76964 -114.50227 24921 ft 460 kts 90°
2026-05-06 02:51 32.77015 -114.46425 24926 ft 460 kts 90°
2026-05-06 02:51 32.77064 -114.42623 24925 ft 460 kts 90°
2026-05-06 02:52 32.77112 -114.38809 24926 ft 460 kts 90°
2026-05-06 02:52 32.77156 -114.35017 24844 ft 460 kts 91°
2026-05-06 02:52 32.77204 -114.31173 24879 ft 470 kts 91°
2026-05-06 02:52 32.77257 -114.27271 24872 ft 474 kts 91°
2026-05-06 02:53 32.77308 -114.23354 24880 ft 475 kts 91°
2026-05-06 02:53 32.77353 -114.19477 24877 ft 475 kts 91°
2026-05-06 02:53 32.77396 -114.15549 24882 ft 476 kts 91°
2026-05-06 02:53 32.77437 -114.11627 24840 ft 474 kts 91°
2026-05-06 02:54 32.77487 -114.07696 24890 ft 475 kts 89°
2026-05-06 02:54 32.77825 -114.03791 24881 ft 475 kts 83°
2026-05-06 02:54 32.78259 -113.99903 24887 ft 474 kts 83°
2026-05-06 02:54 32.78694 -113.96014 24894 ft 474 kts 83°
2026-05-06 02:55 32.79124 -113.92132 24901 ft 474 kts 84°
2026-05-06 02:55 32.79551 -113.88252 24895 ft 474 kts 84°
2026-05-06 02:55 32.79974 -113.84369 24898 ft 474 kts 84°
2026-05-06 02:55 32.80395 -113.80484 24898 ft 474 kts 84°
2026-05-06 02:56 32.80814 -113.76599 24904 ft 474 kts 84°
2026-05-06 02:56 32.81365 -113.72730 24901 ft 478 kts 76°
2026-05-06 02:56 32.82037 -113.70235 24902 ft 477 kts 68°
2026-05-06 02:56 32.83507 -113.66745 24792 ft 468 kts 56°
2026-05-06 02:57 32.85451 -113.63698 24565 ft 460 kts 45°
2026-05-06 02:57 32.87577 -113.60882 24335 ft 456 kts 45°
2026-05-06 02:57 32.89684 -113.58072 24103 ft 453 kts 45°
2026-05-06 02:57 32.91761 -113.55280 23875 ft 449 kts 45°
2026-05-06 02:58 32.93822 -113.52498 23642 ft 446 kts 45°
2026-05-06 02:58 32.95849 -113.49752 23431 ft 436 kts 46°
2026-05-06 02:58 32.97828 -113.47067 23152 ft 426 kts 46°
2026-05-06 02:58 32.99769 -113.44438 22872 ft 419 kts 46°
2026-05-06 02:59 33.01683 -113.41850 22598 ft 416 kts 46°
2026-05-06 02:59 33.03572 -113.39298 22323 ft 414 kts 46°
2026-05-06 02:59 33.05470 -113.36734 21867 ft 411 kts 46°
2026-05-06 02:59 33.07357 -113.34187 21607 ft 408 kts 46°
2026-05-06 03:00 33.09237 -113.31655 21345 ft 407 kts 46°
2026-05-06 03:00 33.11109 -113.29130 21077 ft 405 kts 46°
2026-05-06 03:00 33.12968 -113.26616 20815 ft 403 kts 46°
2026-05-06 03:00 33.14822 -113.24107 20564 ft 401 kts 46°
2026-05-06 03:01 33.16662 -113.21614 20299 ft 398 kts 46°
2026-05-06 03:01 33.18487 -113.19138 20032 ft 396 kts 47°
2026-05-06 03:01 33.20300 -113.16677 19773 ft 394 kts 47°
2026-05-06 03:01 33.22099 -113.14231 19523 ft 391 kts 47°
2026-05-06 03:02 33.23870 -113.11821 19266 ft 389 kts 47°
2026-05-06 03:02 33.25540 -113.09297 19006 ft 385 kts 57°
2026-05-06 03:02 33.26732 -113.06490 18808 ft 375 kts 69°
2026-05-06 03:02 33.27410 -113.03511 18511 ft 369 kts 81°
2026-05-06 03:03 33.27594 -113.00481 18273 ft 364 kts 89°
2026-05-06 03:03 33.27658 -112.97463 18012 ft 363 kts 89°
2026-05-06 03:03 33.27734 -112.94459 17746 ft 361 kts 89°
2026-05-06 03:03 33.27816 -112.91465 17482 ft 359 kts 89°
2026-05-06 03:04 33.27898 -112.88488 17223 ft 358 kts 89°
2026-05-06 03:04 33.27976 -112.85524 16962 ft 354 kts 89°
2026-05-06 03:04 33.28048 -112.82614 16704 ft 347 kts 88°
2026-05-06 03:04 33.28192 -112.79762 16447 ft 340 kts 85°
2026-05-06 03:05 33.28429 -112.76977 16194 ft 335 kts 84°
2026-05-06 03:05 33.28713 -112.74219 15942 ft 334 kts 83°
2026-05-06 03:05 33.29007 -112.71475 15734 ft 332 kts 83°
2026-05-06 03:05 33.29293 -112.68738 15469 ft 331 kts 84°
2026-05-06 03:06 33.29565 -112.66009 15153 ft 329 kts 84°
2026-05-06 03:06 33.29826 -112.63298 14833 ft 328 kts 84°
2026-05-06 03:06 33.30081 -112.60597 14514 ft 326 kts 84°
2026-05-06 03:06 33.30330 -112.57906 14196 ft 325 kts 84°
2026-05-06 03:07 33.30577 -112.55228 13878 ft 323 kts 84°
2026-05-06 03:07 33.30824 -112.52568 13545 ft 322 kts 84°
2026-05-06 03:07 33.31070 -112.49917 13223 ft 320 kts 84°
2026-05-06 03:07 33.31315 -112.47278 12916 ft 318 kts 84°
2026-05-06 03:08 33.31556 -112.44666 12609 ft 315 kts 84°
2026-05-06 03:08 33.31793 -112.42060 12310 ft 316 kts 84°
2026-05-06 03:08 33.32025 -112.39497 12007 ft 313 kts 84°
2026-05-06 03:08 33.32261 -112.36888 11702 ft 311 kts 83°
2026-05-06 03:09 33.32488 -112.34355 11407 ft 310 kts 83°
2026-05-06 03:09 33.32723 -112.31771 11104 ft 307 kts 83°
2026-05-06 03:09 33.32952 -112.29277 10817 ft 305 kts 82°
2026-05-06 03:09 33.33184 -112.26765 10511 ft 302 kts 83°
2026-05-06 03:10 33.33409 -112.24277 10215 ft 300 kts 82°
2026-05-06 03:10 33.33632 -112.21809 9922 ft 297 kts 81°
2026-05-06 03:10 33.33855 -112.19366 9614 ft 295 kts 83°
2026-05-06 03:10 33.34074 -112.16948 9410 ft 288 kts 82°
2026-05-06 03:11 33.34284 -112.14615 9305 ft 277 kts 82°
2026-05-06 03:11 33.34488 -112.12359 9188 ft 268 kts 83°
2026-05-06 03:11 33.34684 -112.10174 9080 ft 260 kts 84°
2026-05-06 03:11 33.34750 -112.08048 8894 ft 255 kts 91°
2026-05-06 03:12 33.34718 -112.05932 8608 ft 254 kts 91°
2026-05-06 03:12 33.34690 -112.03829 8339 ft 251 kts 91°
2026-05-06 03:12 33.34665 -112.01748 8074 ft 249 kts 91°
2026-05-06 03:12 33.34639 -111.99683 7810 ft 247 kts 91°
2026-05-06 03:13 33.34612 -111.97642 7552 ft 244 kts 91°
2026-05-06 03:13 33.34585 -111.95619 7295 ft 242 kts 91°
2026-05-06 03:13 33.34563 -111.93625 7090 ft 238 kts 88°
2026-05-06 03:13 33.34959 -111.91728 7039 ft 237 kts 60°
2026-05-06 03:14 33.35686 -111.89945 7059 ft 240 kts 67°
2026-05-06 03:14 33.36252 -111.88069 7058 ft 240 kts 71°
2026-05-06 03:14 33.36749 -111.86183 7058 ft 241 kts 72°
2026-05-06 03:14 33.37246 -111.84238 7060 ft 241 kts 72°
2026-05-06 03:15 33.37736 -111.82334 7057 ft 240 kts 71°
2026-05-06 03:15 33.38234 -111.80430 7059 ft 240 kts 71°
2026-05-06 03:15 33.38741 -111.78525 7061 ft 240 kts 72°
2026-05-06 03:15 33.39255 -111.76626 7064 ft 241 kts 71°
2026-05-06 03:16 33.39768 -111.74746 7063 ft 241 kts 71°
2026-05-06 03:16 33.40288 -111.72844 7062 ft 240 kts 71°
2026-05-06 03:16 33.40808 -111.70944 7062 ft 240 kts 71°
2026-05-06 03:16 33.41327 -111.69044 7063 ft 241 kts 71°
2026-05-06 03:17 33.41850 -111.67138 7063 ft 240 kts 71°
2026-05-06 03:17 33.42370 -111.65242 7062 ft 240 kts 71°
2026-05-06 03:17 33.42892 -111.63337 7062 ft 241 kts 71°
2026-05-06 03:17 33.43413 -111.61430 7060 ft 240 kts 71°
2026-05-06 03:18 33.43932 -111.59529 7056 ft 241 kts 71°
2026-05-06 03:18 33.44615 -111.57709 7005 ft 238 kts 46°
2026-05-06 03:18 33.45972 -111.56713 6953 ft 229 kts
2026-05-06 03:18 33.47469 -111.57014 6908 ft 218 kts 322°
2026-05-06 03:19 33.48349 -111.58393 6863 ft 210 kts 281°
2026-05-06 03:19 33.48186 -111.60092 6822 ft 211 kts 245°
2026-05-06 03:19 33.47536 -111.61669 6683 ft 211 kts 244°
2026-05-06 03:19 33.46881 -111.63241 6516 ft 210 kts 244°
2026-05-06 03:20 33.45573 -111.66369 6108 ft 209 kts 244°
2026-05-06 03:20 33.44919 -111.67929 5894 ft 210 kts 245°
2026-05-06 03:20 33.44283 -111.69470 5677 ft 209 kts 249°
2026-05-06 03:21 33.44002 -111.71168 5550 ft 208 kts 269°
2026-05-06 03:21 33.44005 -111.72879 5350 ft 208 kts 270°
2026-05-06 03:21 33.44018 -111.74604 5097 ft 206 kts 270°
2026-05-06 03:21 33.44026 -111.76318 4836 ft 206 kts 269°
2026-05-06 03:22 33.44032 -111.78027 4567 ft 204 kts 269°
2026-05-06 03:22 33.44037 -111.79720 4317 ft 201 kts 270°
2026-05-06 03:22 33.44042 -111.81374 4038 ft 196 kts 270°
2026-05-06 03:22 33.44047 -111.82984 3771 ft 190 kts 269°
2026-05-06 03:23 33.44051 -111.84542 3526 ft 181 kts 269°
2026-05-06 03:23 33.44055 -111.85980 3315 ft 160 kts 269°
2026-05-06 03:23 33.44059 -111.87227 3091 ft 143 kts 269°
2026-05-06 03:23 33.44061 -111.88384 2915 ft 136 kts 269°
2026-05-06 03:24 33.44063 -111.89493 2729 ft 136 kts 270°
2026-05-06 03:24 33.44066 -111.90615 2556 ft 133 kts 269°
2026-05-06 03:24 33.44068 -111.91723 2385 ft 134 kts 269°
2026-05-06 03:24 33.44070 -111.92827 2217 ft 132 kts 269°
2026-05-06 03:25 33.44072 -111.93929 2058 ft 132 kts 270°
2026-05-06 03:25 33.44074 -111.95030 1886 ft 132 kts 268°
2026-05-06 03:25 33.44077 -111.96132 1711 ft 133 kts 269°
2026-05-06 03:25 33.44078 -111.97235 1523 ft 132 kts 271°
2026-05-06 03:26 33.44080 -111.98325 1342 ft 131 kts 270°
2026-05-06 03:26 33.44080 -111.99416 1158 ft 128 kts 270°
2026-05-06 03:26 33.44083 -112.00337 1129 ft 88 kts 270°
2026-05-06 03:26 33.44084 -112.00865 1129 ft 40 kts 270°
2026-05-06 03:27 33.44059 -112.01076 1133 ft 9 kts 229°
2026-05-06 03:27 33.43990 -112.01070 1121 ft 13 kts 137°
2026-05-06 03:27 33.43975 -112.00951 1120 ft 16 kts 89°
2026-05-06 03:27 33.43975 -112.00809 1126 ft 18 kts 89°
2026-05-06 03:28 33.43975 -112.00684 1120 ft 15 kts 90°
2026-05-06 03:28 33.43975 -112.00555 1123 ft 14 kts 91°
2026-05-06 03:28 33.43941 -112.00472 1121 ft 13 kts 152°
2026-05-06 03:28 33.43905 -112.00377 1125 ft 14 kts 89°
2026-05-06 03:29 33.43906 -112.00252 1125 ft 16 kts 88°
2026-05-06 03:29 33.43906 -112.00110 1125 ft 18 kts 90°
2026-05-06 03:29 33.43905 -111.99951 1125 ft 20 kts 89°
2026-05-06 03:29 33.43899 -111.99853 1125 ft 7 kts 114°
2026-05-06 03:30 33.43871 -111.99830 1122 ft 6 kts 165°
2026-05-06 03:30 33.43821 -111.99826 1120 ft 8 kts 181°
2026-05-06 03:30 33.43800 -111.99837 1121 ft 4 kts 221°
2026-05-06 03:30 33.43794 -111.99868 1125 ft 4 kts 270°
2026-05-06 03:31 33.43794 -111.99880 1125 ft 0 kts 269°